PST,Max TemperatureF,Mean TemperatureF,Min TemperatureF,Max Dew PointF,MeanDew PointF,Min DewpointF,Max Humidity, Mean Humidity, Min Humidity, Max Sea Level PressureIn, Mean Sea Level PressureIn, Min Sea Level PressureIn, Max VisibilityMiles, Mean VisibilityMiles, Min VisibilityMiles, Max Wind SpeedMPH, Mean Wind SpeedMPH, Max Gust SpeedMPH,PrecipitationIn, CloudCover, Events, WindDirDegrees
2014-1-1,51,35,19,24,19,13,75,53,30,30.41,30.32,30.23,,,,9,3,10,0.00,0,,167
2014-1-2,52,36,20,30,23,15,84,63,41,30.37,30.27,30.18,,,,9,2,11,0.00,0,,168
2014-1-3,58,40,21,31,22,17,84,54,24,30.25,30.13,30.02,10,10,10,9,2,12,0.00,0,,193
2014-1-4,50,36,21,25,13,-18,81,44,6,30.28,30.16,30.02,10,10,10,15,3,23,0.00,0,,190
2014-1-5,47,31,15,15,11,8,73,48,23,30.46,30.37,30.27,10,10,10,8,3,12,0.00,0,,182
2014-1-6,45,31,16,26,16,9,74,52,30,30.48,30.35,30.20,10,10,10,16,3,20,0.00,2,,166
2014-1-7,51,40,28,25,19,13,63,43,23,30.23,30.16,30.08,10,10,10,18,5,26,0.00,1,,196
2014-1-8,48,38,27,26,19,8,72,48,23,30.16,30.10,30.03,10,10,10,15,7,20,0.00,1,,201
2014-1-9,49,39,29,28,23,10,85,59,32,30.20,30.11,30.04,10,10,10,17,5,22,0.00,4,,191
2014-1-10,54,41,27,31,24,21,85,59,32,30.32,30.24,30.18,10,10,10,12,3,13,0.00,0,,184
2014-1-11,48,38,27,33,28,21,81,64,46,30.21,30.11,30.01,10,7,2,25,9,41,0.17,6,Rain-Snow,198
2014-1-12,43,33,22,22,17,11,84,57,29,30.48,30.32,30.16,10,10,10,16,4,24,0.00,0,,171
2014-1-13,51,35,19,24,19,14,84,58,32,30.67,30.58,30.47,10,10,9,9,3,14,0.00,0,,154
2014-1-14,56,38,20,19,16,13,77,50,22,30.74,30.64,30.56,10,10,10,12,3,17,0.00,0,,190
2014-1-15,58,40,21,19,12,-3,74,42,9,30.65,30.54,30.46,10,10,10,13,4,19,0.00,0,,151
2014-1-16,56,36,16,16,13,8,74,45,15,30.57,30.46,30.35,10,10,10,25,3,28,0.00,0,,199
2014-1-17,54,36,18,24,17,12,80,51,22,30.48,30.37,30.26,10,10,10,8,2,11,0.00,0,,164
2014-1-18,55,37,19,24,19,13,81,53,24,30.43,30.32,30.23,10,10,10,9,3,13,0.00,0,,166
2014-1-19,58,38,17,28,18,6,81,47,13,30.37,30.28,30.18,10,10,10,12,3,15,0.00,0,,177
2014-1-20,52,34,16,22,15,9,74,50,26,30.48,30.36,30.27,10,10,10,10,3,13,0.00,0,,163
2014-1-21,53,34,15,23,15,9,74,47,19,30.51,30.39,30.29,10,10,10,9,2,12,0.00,0,,151
2014-1-22,57,37,16,27,16,8,80,48,15,30.36,30.21,30.07,10,10,10,8,2,11,0.00,0,,185
2014-1-23,42,32,22,25,17,10,68,48,28,30.25,30.14,30.05,10,8,2,17,5,29,T,5,Snow,76
2014-1-24,50,37,23,20,18,16,75,53,31,30.46,30.36,30.25,10,10,10,10,2,13,0.00,1,,5
2014-1-25,51,36,20,23,19,15,84,58,31,30.46,30.36,30.27,10,10,10,10,2,14,0.00,0,,173
2014-1-26,54,36,18,20,16,12,77,49,20,30.33,30.22,30.11,10,10,10,12,3,16,0.00,0,,176
2014-1-27,55,38,20,29,21,13,77,50,22,30.30,30.21,30.14,10,10,10,9,2,12,0.00,3,,161
2014-1-28,58,46,33,34,29,25,82,61,40,30.27,30.22,30.15,10,10,10,8,2,12,T,5,,125
2014-1-29,54,44,34,40,38,30,83,71,59,30.21,30.02,29.82,10,7,2,22,7,35,0.76,8,Rain,198
2014-1-30,42,34,25,38,27,22,92,84,75,29.92,29.83,29.78,10,3,0,15,3,20,1.33,8,Fog-Rain-Snow,45
2014-1-31,36,26,15,23,19,9,88,68,47,30.05,29.89,29.80,10,9,2,9,1,12,0.01,5,Snow,167